PBO Station Position Time Series. Reference Frame : NAM14
Format Version,1.1.1
4-character ID,P192
Station name,PotrVlySchCN2005
Begin Date, 2005-06-24
End Date, 2023-06-26
Release Date, 2023-06-27
Reference position, 39.3197279723 North Latitude, -123.1051902692 East Longitude, 259.71498 meters elevation,
Date, North (mm), East (mm), Vertical (mm), North Std. Deviation (mm), East Std. Deviation (mm),              Vertical Std. Deviation (mm), Quality,
2005-06-24,0.00, 0.00, 0.00, 2.09, 1.58, 7.21, repro,
2005-06-25,-1.01, -0.10, -1.84, 2.10, 1.58, 7.20, repro,
2005-06-26,-0.30, 0.13, -1.27, 2.17, 1.63, 7.46, repro,
2005-06-27,-0.06, -0.27, 0.92, 2.12, 1.60, 7.33, repro,
2005-06-28,-0.09, -0.18, -0.17, 2.14, 1.62, 7.38, repro,
2005-06-29,0.18, 0.28, -5.01, 2.10, 1.58, 7.26, repro,
2005-06-30,0.83, -0.44, -0.03, 2.11, 1.59, 7.27, repro,
2005-07-01,-0.04, 2.56, 0.40, 2.09, 1.59, 7.20, repro,
2005-07-02,-0.47, 0.68, -3.32, 2.10, 1.60, 7.32, repro,
2005-07-03,-1.35, -0.19, 3.91, 2.08, 1.59, 7.25, repro,
2005-07-04,0.29, -0.37, 1.40, 2.10, 1.60, 7.29, repro,
2005-07-05,-2.33, -0.52, 3.77, 2.10, 1.59, 7.29, repro,
2005-07-06,-0.45, 1.78, -1.79, 2.08, 1.59, 7.22, repro,
2005-07-07,-2.07, -0.88, 0.84, 2.15, 1.63, 7.32, repro,
2005-07-08,-0.64, 0.51, 0.51, 2.09, 1.60, 7.26, repro,
2005-07-09,-2.65, 0.27, 6.97, 2.10, 1.59, 7.27, repro,
2005-07-10,-0.01, 3.02, -2.46, 2.17, 1.68, 7.56, repro,
2005-07-11,-0.90, -0.63, 1.22, 2.09, 1.58, 7.20, repro,
2005-07-12,-0.50, 0.22, 4.36, 2.19, 1.69, 7.65, repro,
2005-07-13,-1.18, 2.20, -5.85, 2.40, 1.87, 8.46, repro,
2005-08-04,-2.82, 1.65, 5.76, 4.50, 3.55, 15.59, repro,
2005-08-05,-0.23, 1.27, -3.74, 2.24, 1.70, 7.75, repro,
2005-08-22,-1.75, 0.19, 9.97, 2.12, 1.60, 7.34, repro,
2005-08-23,-0.65, 0.22, -3.30, 2.11, 1.60, 7.30, repro,
2005-08-24,0.02, 0.69, 5.77, 2.10, 1.59, 7.26, repro,
2005-08-25,-0.65, 0.99, 5.53, 2.10, 1.60, 7.27, repro,
2005-08-26,-0.79, 0.08, 0.10, 2.25, 1.71, 7.85, repro,
2005-09-13,-0.95, 1.61, 7.81, 2.27, 1.70, 7.80, repro,
2005-09-14,-1.43, 1.05, 4.82, 2.19, 1.66, 7.53, repro,
2005-09-15,-0.40, 1.86, 2.98, 2.20, 1.66, 7.57, repro,
2005-09-16,-0.20, -0.61, 3.26, 2.19, 1.63, 7.47, repro,
2005-09-17,-1.65, 1.22, 2.04, 2.09, 1.59, 7.20, repro,
2005-09-18,-2.08, 0.88, 6.45, 2.14, 1.64, 7.36, repro,
2005-09-19,-1.58, 1.57, 3.96, 2.17, 1.61, 7.49, repro,
2005-09-20,-0.64, 0.59, 2.62, 2.10, 1.60, 7.28, repro,
2005-09-21,-0.25, 1.09, 6.74, 2.12, 1.62, 7.35, repro,
2005-09-22,-0.71, 0.87, -0.29, 2.09, 1.59, 7.21, repro,
2005-09-23,-1.69, 0.48, 1.17, 2.08, 1.59, 7.23, repro,
2005-09-24,-1.48, 0.51, 4.46, 2.13, 1.63, 7.40, repro,
2005-09-25,-1.66, 1.11, 5.68, 2.13, 1.64, 7.39, repro,
2005-09-26,-0.20, -0.35, 7.37, 2.12, 1.64, 7.40, repro,
2005-09-27,-1.88, 1.97, 7.44, 2.17, 1.65, 7.49, repro,
2005-09-28,-1.98, 1.90, 9.52, 2.17, 1.62, 7.40, repro,
2005-09-29,-2.21, 0.91, 8.38, 2.16, 1.63, 7.37, repro,
2005-09-30,-1.28, 0.17, 12.37, 2.10, 1.58, 7.21, repro,
2005-10-01,-1.16, -1.29, 11.39, 2.10, 1.60, 7.30, repro,
2005-10-02,-1.95, 1.15, 0.64, 2.11, 1.62, 7.35, repro,
2005-10-03,-1.18, 3.83, 4.65, 2.12, 1.62, 7.32, repro,
2005-10-04,-3.57, 1.81, 3.02, 2.17, 1.66, 7.56, repro,
2005-10-05,-2.46, 0.42, 0.81, 2.17, 1.61, 7.44, repro,
2005-10-06,-2.21, 0.03, 0.46, 2.12, 1.60, 7.25, repro,
2005-10-07,-2.27, 0.71, 10.90, 2.10, 1.59, 7.25, repro,
2005-10-08,-4.16, 1.25, 14.86, 2.10, 1.58, 7.23, repro,
2005-10-09,-1.82, 0.93, 5.29, 2.10, 1.58, 7.16, repro,
2005-10-10,-1.74, 0.15, 4.71, 2.12, 1.62, 7.38, repro,
2005-10-11,-1.74, 0.69, 7.49, 2.13, 1.62, 7.37, repro,
2005-10-12,-2.24, 1.01, 9.65, 2.11, 1.63, 7.35, repro,
2005-10-13,-0.85, 0.13, 8.47, 2.12, 1.63, 7.31, repro,
2005-10-14,-2.73, 1.79, 7.56, 2.15, 1.63, 7.33, repro,
2005-10-15,-2.95, 0.12, 8.88, 2.16, 1.64, 7.53, repro,
2005-10-16,-1.61, -0.17, 2.04, 2.22, 1.66, 7.76, repro,
2005-10-17,-0.33, 0.77, 8.56, 2.15, 1.63, 7.43, repro,
2005-10-18,-2.04, 0.67, 6.84, 2.21, 1.74, 7.83, repro,
2005-10-19,-1.79, 1.12, 9.39, 2.17, 1.65, 7.55, repro,
2005-10-20,-1.93, 0.87, 5.72, 2.23, 1.64, 7.54, repro,
2005-10-21,-2.07, 0.71, 6.91, 2.19, 1.65, 7.64, repro,
2005-10-22,-1.67, 0.61, 1.46, 2.10, 1.59, 7.24, repro,
2005-10-23,-1.77, 0.23, 8.18, 2.14, 1.63, 7.41, repro,
2005-10-24,-2.49, 0.67, 6.83, 2.08, 1.58, 7.20, repro,
2005-10-25,-0.10, -0.86, 7.26, 2.13, 1.63, 7.34, repro,
2005-10-26,-2.24, -0.43, 17.51, 2.27, 1.79, 7.85, repro,
2005-10-27,-1.23, -0.08, 8.17, 2.10, 1.59, 7.24, repro,
2005-10-28,-2.74, 0.44, 7.09, 2.09, 1.60, 7.27, repro,
2005-10-29,-0.80, 1.39, 11.27, 2.12, 1.65, 7.50, repro,
2005-10-30,-1.54, 0.86, 4.68, 2.12, 1.61, 7.33, repro,
2005-10-31,-0.52, 0.95, -0.25, 2.26, 1.72, 7.81, repro,
2005-11-01,-0.64, 0.80, 0.46, 2.29, 1.79, 7.90, repro,
2005-11-02,-1.08, 1.91, 2.06, 2.20, 1.71, 7.64, repro,
2005-11-03,-2.14, -0.37, 6.92, 2.19, 1.71, 7.58, repro,
2005-11-04,-0.83, 1.21, 3.26, 2.23, 1.75, 7.75, repro,
2005-11-05,-1.30, 0.83, 0.98, 2.25, 1.78, 7.80, repro,
2005-11-06,-1.74, 0.19, 8.45, 2.23, 1.78, 7.74, repro,
2005-11-07,-0.46, -1.27, 10.31, 2.18, 1.72, 7.61, repro,
2005-11-08,-2.71, 0.76, 4.55, 2.21, 1.74, 7.75, repro,
2005-11-09,0.80, 0.53, -3.12, 2.28, 1.81, 8.00, repro,
2005-11-10,-0.38, 0.36, 2.02, 2.40, 1.84, 8.30, repro,
2005-11-11,-1.34, -0.76, 5.12, 2.34, 1.77, 7.94, repro,
2005-11-12,-1.07, 0.50, 2.99, 2.08, 1.64, 7.21, repro,
2005-11-13,-2.16, 1.19, -2.42, 2.34, 1.82, 8.03, repro,
2005-11-14,-5.18, 2.26, -1.60, 2.22, 1.74, 7.74, repro,
2005-11-15,-0.09, 1.44, 0.05, 2.10, 1.58, 7.26, repro,
2005-11-16,-1.10, -0.02, -9.84, 2.12, 1.61, 7.31, repro,
2005-11-17,-0.95, -0.21, -5.03, 2.08, 1.57, 7.14, repro,
2005-11-18,-0.83, 1.22, -3.48, 2.08, 1.58, 7.19, repro,
2005-11-19,-1.11, 0.19, -2.13, 2.09, 1.59, 7.27, repro,
2005-11-20,-1.48, 0.43, 0.22, 2.13, 1.62, 7.37, repro,
2005-11-21,-1.78, -1.56, 1.49, 2.21, 1.72, 7.88, repro,
2005-11-22,-2.70, 0.80, 3.29, 2.18, 1.69, 7.59, repro,
2005-11-23,-1.29, 0.43, 3.19, 2.12, 1.61, 7.35, repro,
2005-11-24,-2.16, 1.13, 8.44, 2.10, 1.60, 7.32, repro,
2005-11-25,-2.50, -1.20, 9.21, 2.14, 1.64, 7.47, repro,
2005-11-26,-2.05, 0.95, 6.16, 2.23, 1.75, 7.86, repro,
2005-11-27,-1.79, 0.39, 6.11, 2.15, 1.66, 7.53, repro,
2005-11-28,-1.74, 0.48, 1.63, 2.19, 1.70, 7.72, repro,
2005-11-29,-2.20, 0.46, 0.72, 2.26, 1.69, 7.67, repro,
2005-11-30,-0.59, 0.13, -5.04, 2.13, 1.62, 7.36, repro,
2005-12-01,-0.33, -1.45, -2.10, 2.11, 1.62, 7.35, repro,
2005-12-02,-1.88, -0.43, -1.04, 2.11, 1.60, 7.23, repro,
2005-12-03,-1.97, 0.99, 1.09, 2.09, 1.60, 7.20, repro,
2005-12-04,0.02, 1.03, -7.71, 2.12, 1.61, 7.28, repro,
2005-12-05,-1.60, 1.21, -8.94, 2.13, 1.64, 7.36, repro,
2005-12-06,-1.53, 1.34, -4.71, 2.17, 1.66, 7.54, repro,
2005-12-07,-1.61, 1.23, -3.43, 2.13, 1.65, 7.38, repro,
2005-12-08,0.14, 1.64, -3.21, 2.20, 1.68, 7.51, repro,
2005-12-09,-0.96, 0.63, -8.64, 2.12, 1.61, 7.28, repro,
2005-12-10,-1.29, 1.08, -2.50, 2.16, 1.66, 7.48, repro,
2005-12-11,-1.60, 0.52, -1.20, 2.10, 1.58, 7.21, repro,
2005-12-12,-0.53, 1.03, 1.48, 2.11, 1.61, 7.31, repro,
2005-12-13,-1.24, 0.48, 0.59, 2.08, 1.56, 7.13, repro,
2005-12-14,-1.47, 0.78, -2.87, 2.10, 1.59, 7.20, repro,
2005-12-15,-0.53, 0.50, -6.23, 2.18, 1.63, 7.48, repro,
2005-12-16,-1.52, 0.49, 0.50, 2.15, 1.64, 7.48, repro,
2005-12-17,-2.19, 0.21, -4.76, 2.16, 1.67, 7.43, repro,
2005-12-18,-0.30, -1.35, 4.76, 2.09, 1.64, 7.23, repro,
2005-12-19,0.09, 0.52, -2.27, 2.20, 1.75, 7.46, repro,
2005-12-20,1.30, -0.46, -2.81, 2.17, 1.72, 7.42, repro,
2005-12-21,-0.49, -0.01, -0.88, 2.19, 1.76, 7.65, repro,
2005-12-22,-2.10, 0.78, -3.43, 2.16, 1.76, 7.57, repro,
2005-12-23,-0.18, 0.61, -2.80, 2.19, 1.72, 7.54, repro,
2005-12-24,-0.56, 1.37, -0.42, 2.28, 1.85, 8.02, repro,
2005-12-25,-1.40, 0.01, -9.54, 2.14, 1.68, 7.37, repro,
2005-12-26,-2.44, -0.44, 3.50, 2.14, 1.64, 7.26, repro,
2005-12-27,-1.43, 0.63, -1.52, 2.21, 1.74, 7.61, repro,
2005-12-28,-3.11, 0.67, -14.97, 2.15, 1.66, 7.35, repro,
2005-12-29,-2.04, 1.16, -6.22, 2.25, 1.77, 7.83, repro,
2005-12-30,-1.89, -0.10, 4.91, 2.23, 1.79, 7.73, repro,
2005-12-31,-3.15, -0.90, 6.09, 2.23, 1.76, 7.66, repro,
2006-01-01,-1.89, 0.97, -0.67, 2.21, 1.73, 7.57, repro,
2006-01-02,-0.90, 0.35, -2.58, 2.13, 1.63, 7.23, repro,
2006-01-03,-0.01, 2.47, -7.23, 2.34, 1.92, 8.17, repro,
2006-01-04,-0.18, 1.94, -13.33, 2.28, 1.89, 7.95, repro,
2006-01-05,0.73, 1.52, -13.40, 2.20, 1.75, 7.56, repro,
2006-01-06,-1.17, 1.34, -5.93, 2.29, 1.83, 7.97, repro,
2006-01-07,-0.37, 1.66, -1.30, 2.15, 1.69, 7.36, repro,
2006-01-08,0.14, 2.90, -3.13, 2.21, 1.80, 7.68, repro,
2006-01-09,-0.80, 1.41, -2.62, 2.24, 1.79, 7.83, repro,
2006-01-10,-1.46, 2.08, -7.18, 2.25, 1.80, 7.80, repro,
2006-01-11,-0.16, 0.17, -0.89, 2.24, 1.79, 7.73, repro,
2006-01-12,-0.83, 1.45, -9.19, 2.15, 1.68, 7.33, repro,
2006-01-13,0.15, 1.09, -3.34, 2.28, 1.83, 8.00, repro,
2006-01-14,-0.02, 2.13, 2.95, 2.20, 1.72, 7.52, repro,
2006-01-15,-0.35, 3.22, 0.90, 2.13, 1.62, 7.21, repro,
2006-01-16,-1.08, 1.68, -0.91, 2.22, 1.81, 7.59, repro,
2006-01-17,-0.73, 1.60, -1.19, 2.17, 1.68, 7.39, repro,
2006-01-18,-0.82, 1.32, -0.78, 2.14, 1.64, 7.35, repro,
2006-01-19,0.04, 1.11, -7.82, 2.22, 1.69, 7.53, repro,
2006-01-20,-1.08, 1.41, -5.85, 2.15, 1.62, 7.37, repro,
2006-01-21,-0.53, 1.91, -3.35, 2.11, 1.59, 7.08, repro,
2006-01-22,0.42, 2.42, -8.65, 2.11, 1.60, 7.13, repro,
2006-01-23,0.15, 4.49, -8.89, 2.11, 1.59, 7.14, repro,
2006-01-24,0.32, 2.21, -7.15, 2.16, 1.63, 7.37, repro,
2006-01-25,-1.66, 1.43, 0.30, 2.03, 1.54, 6.95, repro,
2006-01-26,-1.12, 1.14, -5.70, 2.03, 1.54, 6.93, repro,
2006-01-27,0.85, 0.75, -6.02, 2.06, 1.54, 7.00, repro,
2006-01-28,-0.26, 0.27, -2.53, 2.05, 1.55, 7.06, repro,
2006-01-29,-1.18, 1.24, -2.84, 2.07, 1.55, 7.07, repro,
2006-01-30,0.16, 1.74, -2.99, 2.07, 1.55, 7.08, repro,
2006-01-31,-2.22, 1.85, -3.51, 2.04, 1.53, 6.99, repro,
2006-02-01,-0.95, 1.67, 0.14, 2.10, 1.55, 7.14, repro,
2006-02-02,-1.12, 0.78, -0.10, 2.07, 1.54, 7.08, repro,
2006-02-03,-1.35, 0.97, -4.40, 2.07, 1.56, 7.12, repro,
2006-02-04,-1.26, -0.81, -3.94, 2.12, 1.60, 7.27, repro,
2006-02-05,-1.14, 1.06, -4.71, 2.06, 1.54, 7.04, repro,
2006-02-06,-1.79, 2.08, -9.62, 2.09, 1.59, 7.32, repro,
2006-02-07,-1.53, 1.36, -9.22, 2.08, 1.53, 7.09, repro,
2006-02-08,-0.94, 1.66, -11.39, 2.08, 1.55, 7.17, repro,
2006-02-09,-1.28, 1.33, -6.44, 2.13, 1.55, 7.25, repro,
2006-02-10,-0.35, 1.90, -9.43, 2.20, 1.57, 7.32, repro,
2006-02-11,-1.40, 2.56, -10.75, 2.07, 1.54, 7.11, repro,
2006-02-12,-1.50, 2.18, -12.27, 2.07, 1.53, 7.10, repro,
2006-02-13,-1.50, 1.52, -10.15, 2.10, 1.53, 7.18, repro,
2006-02-14,-3.63, 1.41, 3.90, 2.06, 1.53, 7.12, repro,
2006-02-15,-1.59, 2.14, -0.21, 2.06, 1.53, 7.09, repro,
2006-02-16,-1.10, 2.75, -6.42, 2.08, 1.53, 7.10, repro,
2006-02-17,-2.34, 1.12, -4.82, 2.07, 1.53, 7.13, repro,
2006-02-18,-2.21, 1.34, -5.44, 2.08, 1.53, 7.10, repro,
2006-02-19,-2.61, 1.75, -3.89, 2.09, 1.54, 7.15, repro,
2006-02-20,-1.31, 1.06, 0.35, 2.08, 1.54, 7.15, repro,
2006-02-21,-1.39, 2.22, -1.88, 2.09, 1.53, 7.13, repro,
2006-02-22,-1.61, 2.53, 0.00, 2.08, 1.54, 7.16, repro,
2006-02-23,-1.19, 2.07, -7.01, 2.07, 1.53, 7.11, repro,
2006-02-24,-1.24, 2.08, -10.68, 2.08, 1.54, 7.15, repro,
2006-02-25,-2.20, 1.41, -4.85, 2.09, 1.54, 7.16, repro,
2006-02-26,0.21, 1.60, 2.36, 2.09, 1.56, 7.27, repro,
2006-02-27,0.49, 1.05, 8.40, 2.11, 1.58, 7.32, repro,
2006-02-28,-2.90, 0.90, 3.91, 2.12, 1.57, 7.32, repro,
2006-03-01,-3.05, 1.92, -3.62, 2.16, 1.59, 7.31, repro,
2006-03-02,-0.13, 2.03, -5.57, 2.09, 1.55, 7.21, repro,
2006-03-03,-1.35, 1.32, -0.01, 2.18, 1.56, 7.48, repro,
2006-03-04,-1.52, 2.40, -3.23, 2.08, 1.56, 7.19, repro,
2006-03-05,-0.65, 2.16, -3.77, 2.08, 1.56, 7.20, repro,
2006-03-06,-2.02, 3.28, -8.77, 2.05, 1.56, 7.18, repro,
2006-03-07,-0.95, 2.52, 0.54, 2.09, 1.57, 7.30, repro,
2006-03-08,-1.17, 2.24, -6.40, 2.08, 1.57, 7.27, repro,
2006-03-09,-1.73, 2.42, 3.93, 2.09, 1.57, 7.26, repro,
2006-03-10,-0.91, 0.77, -5.68, 2.07, 1.56, 7.21, repro,
2006-03-11,-1.06, 2.55, 1.02, 2.11, 1.58, 7.34, repro,
2006-03-12,-2.54, 1.20, -6.88, 2.10, 1.57, 7.30, repro,
2006-03-13,-1.99, 2.15, -5.95, 2.18, 1.60, 7.42, repro,
2006-03-14,-1.06, 1.44, -7.85, 2.13, 1.59, 7.38, repro,
2006-03-15,-0.96, 3.24, -8.61, 2.11, 1.58, 7.29, repro,
2006-03-16,-2.55, 1.62, -10.63, 2.18, 1.62, 7.53, repro,
2006-03-17,-0.85, 2.52, -8.58, 2.17, 1.62, 7.51, repro,
2006-03-18,-0.11, 1.86, -5.08, 2.11, 1.59, 7.32, repro,
2006-03-19,-2.00, 2.37, -6.55, 2.11, 1.59, 7.35, repro,
2006-03-20,-0.78, 0.29, -4.69, 2.10, 1.59, 7.31, repro,
2006-03-21,-1.57, 1.50, -7.07, 2.08, 1.58, 7.29, repro,
2006-03-22,-1.78, 2.49, -10.16, 2.10, 1.60, 7.39, repro,
2006-03-23,-0.47, 3.09, -11.61, 2.15, 1.63, 7.48, repro,
2006-03-24,-0.85, 1.77, -11.35, 2.16, 1.63, 7.48, repro,
2006-03-25,-3.59, 2.93, -5.18, 2.20, 1.64, 7.61, repro,
2006-03-26,-0.94, 2.19, -3.75, 2.15, 1.61, 7.37, repro,
2006-03-27,-0.92, 3.33, -3.79, 2.14, 1.63, 7.42, repro,
2006-03-28,-0.83, 1.31, 9.67, 2.08, 1.61, 7.33, repro,
2006-03-29,-1.33, 1.54, -2.72, 2.02, 1.57, 7.14, repro,
2006-03-30,-1.82, 1.45, -0.69, 2.02, 1.58, 7.15, repro,
2006-03-31,-1.93, 0.39, -0.93, 2.03, 1.58, 7.15, repro,
2006-04-01,-1.76, 0.98, 0.82, 2.03, 1.57, 7.13, repro,
2006-04-02,-1.40, 2.48, -1.97, 2.02, 1.56, 7.14, repro,
2006-04-03,-2.45, 0.70, 1.42, 2.00, 1.57, 7.10, repro,
2006-04-04,-1.07, 1.63, 0.20, 2.03, 1.58, 7.19, repro,
2006-04-05,-1.00, 1.24, -2.35, 2.03, 1.57, 7.16, repro,
2006-04-06,-1.56, 1.94, -1.90, 2.08, 1.60, 7.32, repro,
2006-04-07,-2.36, 0.44, -4.25, 2.13, 1.61, 7.45, repro,
2006-04-08,-0.96, 1.52, -3.24, 2.15, 1.62, 7.53, repro,
2006-04-09,-0.96, 2.13, -5.59, 2.02, 1.57, 7.17, repro,
2006-04-10,-1.32, 1.72, 0.25, 2.02, 1.57, 7.15, repro,
2006-04-11,-0.70, 0.94, 1.45, 2.09, 1.61, 7.44, repro,
2006-04-12,0.62, 1.30, 3.24, 2.08, 1.59, 7.33, repro,
2006-04-13,0.29, 2.18, -6.52, 2.02, 1.57, 7.16, repro,
2006-04-14,-1.26, 1.25, -0.49, 2.02, 1.59, 7.22, repro,
2006-04-15,-0.79, 1.49, 1.00, 2.08, 1.61, 7.34, repro,
2006-04-16,-1.05, 1.43, 0.92, 2.01, 1.56, 7.13, repro,
2006-04-17,-0.31, 2.20, -2.62, 2.02, 1.57, 7.15, repro,
2006-04-18,-0.52, 1.91, -8.46, 2.01, 1.56, 7.14, repro,
2006-04-19,-1.62, 1.96, -7.95, 2.02, 1.57, 7.19, repro,
2006-04-20,-1.29, 1.97, -5.81, 2.06, 1.62, 7.42, repro,
2006-04-21,-1.32, 1.37, -4.52, 2.04, 1.60, 7.27, repro,
2006-04-22,-2.35, 2.13, -2.78, 2.03, 1.57, 7.19, repro,
2006-04-23,-0.70, 1.60, -3.31, 2.05, 1.60, 7.29, repro,
2006-04-24,-0.60, 2.51, -5.01, 2.05, 1.60, 7.29, repro,
2006-04-25,-1.26, 2.80, -2.34, 2.10, 1.68, 7.52, repro,
2006-04-26,-1.02, 2.03, -3.19, 2.06, 1.61, 7.30, repro,
2006-04-27,-0.86, 1.64, -7.88, 2.13, 1.62, 7.41, repro,
2006-04-28,-1.33, 1.56, -8.66, 2.08, 1.57, 7.21, repro,
2006-04-29,-0.19, 2.69, -11.97, 2.03, 1.57, 7.22, repro,
2006-04-30,-1.24, 2.23, -8.30, 2.02, 1.57, 7.15, repro,
2006-05-01,-1.79, 1.86, -4.29, 2.02, 1.56, 7.15, repro,
2006-05-02,-1.95, 2.00, -4.32, 2.01, 1.57, 7.19, repro,
2006-05-03,-0.64, 2.39, -0.59, 2.02, 1.57, 7.22, repro,
2006-05-04,-0.74, 1.63, -4.50, 2.02, 1.55, 7.12, repro,
2006-05-05,-1.44, 0.74, -3.23, 2.02, 1.56, 7.18, repro,
2006-05-06,-1.76, 1.01, -2.37, 2.02, 1.56, 7.19, repro,
2006-05-07,-2.49, 1.95, -0.26, 2.02, 1.56, 7.18, repro,
2006-05-08,-1.39, 2.82, -0.39, 2.03, 1.56, 7.20, repro,
2006-05-09,-0.95, 1.26, -3.00, 2.07, 1.59, 7.25, repro,
2006-05-10,-0.06, 1.76, -1.18, 2.02, 1.56, 7.17, repro,
2006-05-11,-1.76, 0.89, 1.23, 2.10, 1.64, 7.51, repro,
2006-05-12,-1.88, 1.57, 0.53, 2.02, 1.57, 7.21, repro,
2006-05-13,-1.36, 1.67, -1.55, 2.02, 1.56, 7.20, repro,
2006-05-14,-1.06, 0.33, -6.67, 2.01, 1.56, 7.17, repro,
2006-05-15,-1.26, 1.14, -10.31, 2.02, 1.56, 7.17, repro,
2006-05-16,-2.01, 0.84, -0.39, 2.05, 1.61, 7.42, repro,
2006-05-17,-0.90, 1.33, -1.06, 2.05, 1.60, 7.38, repro,
2006-05-18,-1.93, 1.56, -1.47, 2.04, 1.58, 7.26, repro,
2006-05-19,-2.09, 1.46, 2.66, 2.08, 1.59, 7.28, repro,
2006-05-20,-2.14, 1.51, 3.15, 2.08, 1.58, 7.23, repro,
2006-05-21,-2.30, 0.14, 6.87, 2.10, 1.61, 7.39, repro,
2006-05-22,-1.97, 2.35, 9.87, 2.14, 1.69, 7.70, repro,
2006-05-23,-2.47, 0.58, 4.32, 2.09, 1.60, 7.33, repro,
2006-05-24,-3.08, 2.35, -3.97, 2.08, 1.60, 7.28, repro,
2006-05-25,-1.97, 1.31, -3.56, 2.19, 1.66, 7.63, repro,
2006-05-26,-3.59, 1.57, 4.11, 2.14, 1.62, 7.49, repro,
2006-05-27,-1.68, 0.95, 7.35, 2.14, 1.63, 7.52, repro,
2006-05-28,-2.60, 3.26, 2.13, 2.12, 1.65, 7.62, repro,
2006-05-29,-0.83, 2.97, 2.43, 2.09, 1.61, 7.37, repro,
2006-05-30,-1.61, 2.67, -4.05, 2.14, 1.63, 7.46, repro,
2006-05-31,-2.92, 2.54, -1.80, 2.16, 1.66, 7.60, repro,
2006-06-01,-2.64, 2.51, 3.04, 2.14, 1.63, 7.55, repro,
2006-06-02,-1.65, 2.22, 0.64, 2.24, 1.69, 7.87, repro,
2006-06-03,-3.30, 2.10, -1.29, 2.19, 1.66, 7.71, repro,
2006-06-04,-2.07, 3.02, 4.32, 2.15, 1.62, 7.53, repro,
2006-06-05,-1.75, 1.65, 4.76, 2.15, 1.62, 7.51, repro,
2006-06-06,-2.77, 2.82, 10.47, 2.15, 1.63, 7.53, repro,
2006-06-07,-2.18, 1.12, 2.11, 2.15, 1.63, 7.58, repro,
2006-06-08,-2.93, 2.02, -1.94, 2.09, 1.60, 7.39, repro,
2006-06-09,-1.30, 1.33, 0.37, 2.09, 1.59, 7.34, repro,
2006-06-10,-2.12, 2.52, -0.29, 2.08, 1.60, 7.30, repro,
2006-06-11,-3.47, 0.18, 6.66, 2.12, 1.62, 7.45, repro,
2006-06-12,-1.14, 2.75, 8.88, 2.12, 1.63, 7.50, repro,
2006-06-13,-1.61, 1.84, 0.99, 2.14, 1.63, 7.51, repro,
2006-06-14,-1.34, 1.45, 1.13, 2.09, 1.60, 7.36, repro,
2006-06-15,-2.11, 2.17, 3.46, 2.10, 1.60, 7.40, repro,
2006-06-16,-3.68, 4.19, 5.73, 2.09, 1.60, 7.36, repro,
2006-06-17,-0.63, 1.70, 1.78, 2.12, 1.62, 7.42, repro,
2006-06-18,-2.62, 0.95, 11.04, 2.09, 1.63, 7.48, repro,
2006-06-19,-2.43, 2.24, 2.32, 2.10, 1.63, 7.53, repro,
2006-06-20,-2.18, 2.08, 4.16, 2.11, 1.64, 7.58, repro,
2006-06-21,-3.42, 1.13, 4.62, 2.13, 1.64, 7.62, repro,
2006-06-22,-2.82, 1.64, 2.76, 2.15, 1.67, 7.62, repro,
2006-06-23,-0.86, 1.78, 3.47, 2.11, 1.63, 7.56, repro,
2006-06-24,-3.17, 2.77, 3.39, 2.11, 1.65, 7.62, repro,
2006-06-25,-2.23, 1.36, 1.06, 2.11, 1.67, 7.65, repro,
2006-06-26,-2.06, 1.74, 1.86, 2.11, 1.65, 7.60, repro,
2006-06-27,-1.21, 1.13, 9.21, 2.16, 1.70, 7.71, repro,
2006-06-28,-2.24, 1.10, 10.17, 2.09, 1.63, 7.49, repro,
2006-06-29,-1.86, 2.09, 3.41, 2.04, 1.60, 7.37, repro,
2006-06-30,-1.32, 2.43, 6.93, 2.08, 1.60, 7.44, repro,
2006-07-01,-0.29, 2.60, -1.93, 2.08, 1.61, 7.48, repro,
2006-07-03,-0.78, 1.96, -6.20, 2.07, 1.60, 7.41, repro,
2006-07-04,-1.85, 0.73, 3.17, 2.06, 1.59, 7.38, repro,
2006-07-05,-2.89, 1.88, 6.24, 2.07, 1.61, 7.43, repro,
2006-07-06,-1.61, 2.65, -3.47, 2.13, 1.65, 7.67, repro,
2006-07-07,-2.66, 1.78, -4.58, 2.07, 1.61, 7.46, repro,
2006-07-08,-0.96, 1.48, -1.70, 2.09, 1.61, 7.58, repro,
2006-07-09,-2.05, 0.17, -1.19, 2.07, 1.60, 7.44, repro,
2006-07-10,-2.27, 1.67, -1.66, 2.08, 1.60, 7.45, repro,
2006-07-11,-1.64, 0.28, 5.35, 2.08, 1.61, 7.52, repro,
2006-07-12,-3.24, 1.91, 5.06, 2.07, 1.61, 7.51, repro,
2006-07-13,-2.08, 2.11, 3.05, 2.08, 1.60, 7.51, repro,
2006-07-14,-0.87, 1.30, 4.23, 2.05, 1.59, 7.39, repro,
2006-07-15,-3.28, 1.18, 8.13, 2.08, 1.60, 7.49, repro,
2006-07-16,-1.13, 1.18, 5.02, 2.11, 1.65, 7.65, repro,
2006-07-17,-3.00, 1.64, 3.08, 2.11, 1.66, 7.78, repro,
2006-07-18,-2.43, 0.80, 5.59, 2.02, 1.57, 7.27, repro,
2006-07-19,-1.40, -0.59, -2.80, 2.02, 1.57, 7.25, repro,
2006-07-20,-0.99, 1.61, 1.19, 2.01, 1.56, 7.23, repro,
2006-07-21,-0.93, 0.53, 1.02, 2.03, 1.61, 7.43, repro,
2006-07-22,-2.92, 1.77, 8.56, 2.02, 1.58, 7.28, repro,
2006-07-23,-3.05, 0.86, 3.25, 2.02, 1.57, 7.22, repro,
2006-07-24,-4.61, 1.57, 5.58, 2.08, 1.66, 7.58, repro,
2006-07-25,-1.78, 2.74, 7.81, 2.05, 1.62, 7.49, repro,
2006-07-26,-1.50, 0.79, 4.37, 2.01, 1.56, 7.20, repro,
2006-07-27,-2.16, 0.82, 4.99, 2.01, 1.56, 7.20, repro,
2006-07-28,-3.22, 0.73, 6.44, 2.01, 1.57, 7.22, repro,
2006-07-29,-2.38, -0.47, 3.69, 2.05, 1.62, 7.39, repro,
2006-07-30,-1.18, 0.33, 4.88, 2.05, 1.62, 7.40, repro,
2006-07-31,-3.03, 1.75, 10.10, 2.00, 1.56, 7.19, repro,
2006-08-01,-0.92, 1.28, 9.28, 2.01, 1.57, 7.24, repro,
2006-08-02,-3.70, 1.93, 6.70, 2.04, 1.62, 7.50, repro,
2006-08-03,-2.16, 1.21, 7.34, 2.09, 1.67, 7.67, repro,
2006-08-04,-0.66, 0.15, 4.70, 2.11, 1.65, 7.62, repro,
2006-08-05,-2.41, 0.58, 8.57, 2.09, 1.67, 7.63, repro,
2006-08-06,-2.49, -0.18, 3.70, 2.06, 1.63, 7.58, repro,
2006-08-07,-1.46, 1.33, -0.35, 2.07, 1.63, 7.63, repro,
2006-08-08,-2.93, 1.90, -1.09, 2.03, 1.58, 7.28, repro,
2006-08-09,-1.91, 1.13, 2.32, 2.05, 1.62, 7.40, repro,
2006-08-10,-2.59, 0.95, 9.25, 2.01, 1.57, 7.20, repro,
2006-08-11,-2.40, 0.12, 3.46, 2.02, 1.57, 7.23, repro,
2006-08-12,-2.88, 1.23, 3.09, 2.07, 1.63, 7.46, repro,
2006-08-13,-2.39, 1.16, 8.01, 2.01, 1.57, 7.23, repro,
2006-08-14,-2.53, 0.15, 7.35, 2.06, 1.62, 7.39, repro,
2006-08-15,-2.10, 1.00, 2.38, 2.12, 1.64, 7.45, repro,
2006-08-16,-2.25, 1.46, 11.22, 2.02, 1.57, 7.24, repro,
2006-08-17,-1.49, 1.72, 0.42, 2.06, 1.63, 7.43, repro,
2006-08-18,-3.09, 1.96, 6.09, 2.10, 1.66, 7.60, repro,
2006-08-19,-3.25, 0.82, 4.52, 2.01, 1.57, 7.24, repro,
2006-08-20,-2.76, 1.77, 7.44, 1.99, 1.57, 7.16, repro,
2006-08-21,-1.43, 1.45, 3.83, 2.01, 1.60, 7.26, repro,
2006-08-22,-2.30, 2.31, 4.16, 2.02, 1.61, 7.34, repro,
2006-08-23,-1.44, 0.90, 10.54, 2.02, 1.60, 7.32, repro,
2006-08-24,-2.01, 1.72, 7.50, 2.03, 1.61, 7.36, repro,
2006-08-25,-3.53, 0.88, 8.81, 2.03, 1.64, 7.49, repro,
2006-08-26,-3.16, 1.17, 12.07, 2.07, 1.66, 7.64, repro,
2006-08-27,-2.23, 1.14, 7.97, 2.09, 1.69, 7.75, repro,
2006-08-28,-2.30, -0.36, 6.66, 2.09, 1.69, 7.73, repro,
2006-08-29,-1.82, 1.24, 8.61, 2.09, 1.69, 7.74, repro,
2006-08-30,-1.91, 0.97, 2.52, 2.08, 1.68, 7.71, repro,
2006-08-31,-2.87, 0.71, 5.46, 2.08, 1.69, 7.69, repro,
2006-09-01,-3.94, 0.25, 9.76, 2.09, 1.69, 7.74, repro,
2006-09-02,-2.81, 0.93, 5.56, 2.07, 1.69, 7.69, repro,
2006-09-03,-1.34, 0.91, 2.08, 2.08, 1.69, 7.69, repro,
2006-09-04,-2.36, 0.38, 0.04, 2.14, 1.72, 7.85, repro,
2006-09-05,-2.61, 1.20, -1.21, 2.15, 1.71, 7.87, repro,
2006-09-06,-0.79, 0.46, 3.29, 2.08, 1.69, 7.68, repro,
2006-09-07,-2.67, 1.77, 10.52, 2.13, 1.74, 7.96, repro,
2006-09-08,-1.60, 0.68, 12.19, 2.13, 1.73, 7.92, repro,
2006-09-09,-2.57, 0.17, 6.25, 2.05, 1.65, 7.47, repro,
2006-09-10,-2.28, 0.21, 1.99, 2.05, 1.64, 7.41, repro,
2006-09-11,-1.34, 1.16, 2.92, 2.05, 1.65, 7.45, repro,
2006-09-12,-1.75, 0.82, 9.05, 2.05, 1.64, 7.44, repro,
2006-09-13,-1.44, 1.17, 10.92, 2.07, 1.65, 7.50, repro,
2006-09-14,-1.92, 0.56, 7.10, 2.15, 1.74, 7.76, repro,
2006-09-15,-0.69, 1.65, 10.53, 2.10, 1.63, 7.46, repro,
2006-09-16,-0.97, 0.89, 11.55, 2.03, 1.61, 7.33, repro,
2006-09-17,-3.09, 0.16, 7.54, 2.02, 1.61, 7.29, repro,
2006-09-18,-2.32, 0.66, 9.02, 2.02, 1.60, 7.31, repro,
2006-09-19,-2.24, 0.92, 10.73, 2.03, 1.60, 7.29, repro,
2006-09-20,-2.63, -0.06, 2.93, 2.01, 1.60, 7.27, repro,
2006-09-21,-5.26, 0.99, 19.61, 2.06, 1.64, 7.50, repro,
2006-09-22,-1.89, 0.19, 14.40, 2.10, 1.68, 7.63, repro,
2006-09-23,-1.19, 1.77, 8.95, 2.08, 1.64, 7.45, repro,
2006-09-24,-2.37, 0.58, 7.69, 2.20, 1.70, 7.82, repro,
2006-09-25,-2.49, 1.10, 3.53, 2.09, 1.63, 7.40, repro,
2006-09-26,-2.32, 1.40, 7.31, 2.10, 1.63, 7.42, repro,
2006-09-27,-2.12, 0.80, 1.69, 2.10, 1.64, 7.45, repro,
2006-09-28,-1.48, -0.35, 8.65, 2.12, 1.68, 7.51, repro,
2006-09-29,-1.50, 1.46, 9.44, 2.11, 1.66, 7.52, repro,
2006-09-30,-2.41, 0.77, 10.39, 2.07, 1.66, 7.56, repro,
2006-10-01,-2.31, 1.03, 13.80, 2.08, 1.66, 7.59, repro,
2006-10-02,-1.75, -0.01, 8.34, 2.11, 1.70, 7.58, repro,
2006-10-03,-2.63, -0.05, 3.92, 2.20, 1.75, 7.81, repro,
2006-10-04,-2.12, 0.06, 11.44, 2.09, 1.63, 7.39, repro,
2006-10-05,-3.33, 0.20, 17.83, 2.04, 1.62, 7.40, repro,
2006-10-06,-2.92, 0.87, 7.49, 2.05, 1.62, 7.45, repro,
2006-10-07,-2.13, -0.65, 5.40, 2.19, 1.80, 8.05, repro,
2006-10-08,-3.57, 0.92, 3.17, 2.13, 1.70, 7.75, repro,
2006-10-09,-2.57, -0.46, 3.04, 2.09, 1.66, 7.53, repro,
2006-10-10,0.46, 2.39, -2.20, 2.05, 1.62, 7.37, repro,
2006-10-11,-2.56, 2.34, 3.75, 2.09, 1.67, 7.71, repro,
2006-10-12,-2.70, 1.25, 14.11, 2.11, 1.64, 7.49, repro,
2006-10-13,-2.88, 0.37, 13.80, 2.06, 1.61, 7.35, repro,
2006-10-14,-2.35, 0.39, 13.99, 2.05, 1.65, 7.49, repro,